TimeCST,TemperatureF,Dew PointF,Humidity,Sea Level PressureIn,VisibilityMPH,Wind Direction,Wind SpeedMPH,Gust SpeedMPH,PrecipitationIn,Events,Conditions,WindDirDegrees,DateUTC
12:53 AM,32.0,30.0,92,30.38,10.0,Calm,Calm,-,N/A,,Clear,0,2013-11-07 06:53:00
1:53 AM,30.9,28.9,92,30.40,10.0,SW,5.8,-,N/A,,Clear,220,2013-11-07 07:53:00
2:53 AM,34.0,32.0,92,30.39,10.0,Calm,Calm,-,N/A,,Clear,0,2013-11-07 08:53:00
3:53 AM,30.9,30.0,96,30.40,10.0,Calm,Calm,-,N/A,,Clear,0,2013-11-07 09:53:00
4:53 AM,30.9,30.0,96,30.42,10.0,SW,3.5,-,N/A,,Clear,230,2013-11-07 10:53:00
5:53 AM,33.1,30.9,92,30.43,10.0,Calm,Calm,-,N/A,,Clear,0,2013-11-07 11:53:00
6:53 AM,32.0,30.9,96,30.44,10.0,Calm,Calm,-,N/A,,Clear,0,2013-11-07 12:53:00
7:53 AM,34.0,33.1,96,30.47,10.0,Calm,Calm,-,N/A,,Clear,0,2013-11-07 13:53:00
8:53 AM,44.1,39.9,85,30.47,10.0,Calm,Calm,-,N/A,,Clear,0,2013-11-07 14:53:00
9:53 AM,52.0,39.0,61,30.46,10.0,Calm,Calm,-,N/A,,Clear,0,2013-11-07 15:53:00
10:53 AM,59.0,39.0,48,30.46,10.0,SW,8.1,-,N/A,,Clear,230,2013-11-07 16:53:00
11:53 AM,63.0,36.0,37,30.44,10.0,WSW,5.8,-,N/A,,Clear,240,2013-11-07 17:53:00
12:53 PM,64.9,36.0,34,30.41,10.0,WSW,9.2,-,N/A,,Clear,250,2013-11-07 18:53:00
1:53 PM,66.0,35.1,32,30.38,10.0,WSW,9.2,-,N/A,,Clear,240,2013-11-07 19:53:00
2:53 PM,66.0,30.0,26,30.37,10.0,SW,9.2,-,N/A,,Clear,220,2013-11-07 20:53:00
3:53 PM,64.9,28.9,26,30.36,10.0,West,8.1,-,N/A,,Clear,260,2013-11-07 21:53:00
4:53 PM,62.1,32.0,32,30.36,10.0,WSW,4.6,-,N/A,,Clear,240,2013-11-07 22:53:00
5:53 PM,50.0,33.1,52,30.37,10.0,Calm,Calm,-,N/A,,Clear,0,2013-11-07 23:53:00
6:53 PM,46.0,34.0,63,30.38,10.0,Calm,Calm,-,N/A,,Clear,0,2013-11-08 00:53:00
8:53 PM,41.0,36.0,82,30.36,10.0,Calm,Calm,-,N/A,,Clear,0,2013-11-08 02:53:00
9:53 PM,37.9,35.1,89,30.35,10.0,Calm,Calm,-,N/A,,Clear,0,2013-11-08 03:53:00
10:53 PM,39.0,36.0,89,30.34,10.0,Calm,Calm,-,N/A,,Clear,0,2013-11-08 04:53:00
11:53 PM,36.0,34.0,93,30.33,10.0,Calm,Calm,-,N/A,,Clear,0,2013-11-08 05:53:00